Home   Weather   Bucharest   Past weeks
Flag for Romania

Past Weather in Bucharest, Romania — Yesterday and Last 2 Weeks

Now
75 °F

Clear.


Feels Like: 77 °F
Forecast: 93 / 65 °F
Wind: 2 mph from East

Location: Bucharest / Imh

Current Time: Jul 21, 2019 at 10:38:26 pm

Latest Report: Jul 21, 2019 at 10:00 pm


Visibility: 10 mi

Pressure: 30.07 "Hg

Humidity: 65%

Dew Point: 63 °F

Location of BucharestLocation

Past Weather in Bucharest — Graph

°F

Bucharest Temperature Yesterday

Maximum temperature yesterday: 88 °F (at 3:00 pm)
Minimum temperature yesterday: 63 °F (at 5:30 am)
Average temperature yesterday: 76 °F

High & Low Weather Summary for the Past Weeks

 TemperatureHumidityPressure
High91 °F (Jul 21, 5:00 pm)100% (Jul 8, 3:30 am)30.09 "Hg (Jul 8, 3:30 am)
Low55 °F (Jul 11, 5:30 am)29% (Jul 17, 5:00 pm)29.68 "Hg (Jul 7, 7:00 pm)
Average70 °F67%29.88 "Hg
* Reported Jul 6 9:00 pm — Jul 21 9:00 pm, Bucharest. Weather by CustomWeather, © 2019

Note: Actual official high and low records may vary slightly from our data, if they occured in-between our weather recording intervals... More about our weather records

Advertising

Bucharest Weather History for the Previous 24 Hours

Scroll right to see more
 ConditionsComfort  
Time TempWeatherWind HumidityBarometerVisibility
9:00 pm
Sun, Jul 21
82 °FClear.3 mph45%30.07 "Hg10 mi
8:30 pm84 °FSunny.5 mph45%30.04 "Hg10 mi
8:00 pm88 °FSunny.5 mph35%30.04 "Hg10 mi
7:30 pm88 °FPassing clouds.3 mph35%30.04 "HgN/A
7:00 pm90 °FPassing clouds.3 mph33%30.04 "HgN/A
6:30 pm91 °FPassing clouds.3 mph30%30.04 "HgN/A
6:00 pm90 °FPassing clouds.5 mph33%30.04 "HgN/A
5:30 pm90 °FSunny.1 mph33%30.07 "Hg10 mi
5:00 pm91 °FSunny.3 mph30%30.07 "Hg10 mi
4:30 pm90 °FSunny.2 mph31%30.07 "Hg10 mi
4:00 pm90 °FPassing clouds.5 mph36%30.07 "HgN/A
3:30 pm90 °FPassing clouds.3 mph33%30.07 "HgN/A
3:00 pm90 °FSunny.3 mph31%30.07 "Hg10 mi
2:30 pm88 °FPassing clouds.5 mph40%30.09 "HgN/A
2:00 pm88 °FSunny.3 mph38%30.09 "Hg10 mi
1:30 pm86 °FPassing clouds.5 mph38%30.09 "HgN/A
1:00 pm86 °FSunny.5 mph46%30.09 "Hg10 mi
12:30 pm86 °FSunny.2 mph49%30.09 "Hg10 mi
12:00 pm84 °FSunny.2 mph45%30.09 "Hg10 mi
11:30 am82 °FSunny.3 mph55%30.09 "Hg10 mi
11:00 am81 °FSunny.2 mph58%30.09 "Hg10 mi
10:30 am81 °FSunny.2 mph58%30.09 "Hg10 mi
10:00 am77 °FPassing clouds.3 mph61%30.09 "HgN/A
9:30 am75 °FPassing clouds.3 mph65%30.09 "HgN/A
9:00 am73 °FPassing clouds.5 mph74%30.09 "HgN/A
8:30 am72 °FSunny.2 mph73%30.09 "Hg10 mi
8:00 am70 °FSunny.1 mph78%30.09 "Hg10 mi
7:30 am68 °FSunny.No wind83%30.09 "Hg10 mi
7:00 am66 °FSunny.No wind83%30.09 "Hg10 mi
6:30 am64 °FSunny.No wind88%30.09 "Hg10 mi
6:00 am64 °FSunny.No wind88%30.09 "Hg10 mi
5:30 am64 °FClear.1 mph88%30.09 "Hg10 mi
5:00 am64 °FClear.1 mph88%30.09 "Hg10 mi
4:30 am66 °FClear.2 mph83%30.09 "Hg10 mi
4:00 am66 °FClear.5 mph88%30.09 "Hg10 mi
3:30 am66 °FClear.2 mph88%30.09 "Hg10 mi
3:00 am68 °FClear.No wind83%30.09 "Hg10 mi
2:30 am66 °FClear.No wind88%30.09 "Hg10 mi
2:00 am66 °FClear.2 mph88%30.09 "Hg10 mi
1:30 am70 °FClear.1 mph78%30.09 "Hg10 mi
1:00 am68 °FClear.1 mph83%30.09 "Hg10 mi
12:30 am68 °FClear.2 mph83%30.09 "Hg10 mi
12:00 am72 °FClear.1 mph73%30.09 "Hg10 mi
11:30 pm
Sat, Jul 20
73 °FClear.No wind69%30.07 "Hg10 mi
11:00 pm75 °FClear.1 mph65%30.07 "Hg10 mi
10:30 pm75 °FClear.1 mph65%30.07 "Hg10 mi
10:00 pm77 °FClear.No wind61%30.07 "Hg10 mi
Weather by CustomWeather, © 2019

See weather overview